Regional Weather Roundup
Issued by NWS

Home | Current Version | Previous Version | Graphics & Text | Print | Product List | Glossary On
Versions: 1 2 3 4 5 6 7 8 9 10 11 12 13 14 15 16 17 18 19 20 21 22 23 24 25 26 27
000
ASUS45 KTFX 221710
RWRMT
MONTANA REGIONAL WEATHER ROUNDUP
NATIONAL WEATHER SERVICE GREAT FALLS MT
1100 AM MDT MON MAY 22 2017

NOTE: "FAIR" INDICATES FEW OR NO CLOUDS BELOW 12000 FEET WITH NO
SIGNIFICANT WEATHER AND/OR OBSTRUCTIONS TO VISIBILITY.

MTZ001>007-043-221800-
WEST OF THE DIVIDE

CITY           SKY/WX    TMP DP  RH WIND       PRES   REMARKS
KALISPELL      SUNNY     64  43  46 CALM      30.22F
MISSOULA       SUNNY     61  44  53 CALM      30.26F
BUTTE          SUNNY     62  34  35 NW7       30.29F
MULLAN PASS    SUNNY     58  37  45 VRB5      30.32S
ANACONDA         N/A     61  36  39 NE7       30.27F
DEER LODGE       N/A     61  39  44 NE3       30.30S
EUREKA           N/A     63  41  45 CALM      30.23F
HAMILTON         N/A     64  41  42 CALM      30.25F
LIBBY            N/A     63  45  51 CALM      30.21F
PLAINS           N/A     65  48  53 CALM      30.20F
RONAN            N/A     67  46  46 SW1       30.25F
$$

MTZ008-052>055-221800-
SOUTHWEST MONTANA

CITY           SKY/WX    TMP DP  RH WIND       PRES   REMARKS
BOZEMAN        SUNNY     62  38  40 CALM      30.25F
DILLON         SUNNY     61  37  41 CALM      30.26F
ENNIS          MOSUNNY   61  36  39 N8        30.31F
THREE FORKS      N/A     62  40  44 CALM      30.21F
TWIN BRIDGES     N/A     59  36  42 S2        30.22F
$$

MTZ009-010-012-014-046-048-049-054-221800-
EAST SLOPES AND CENTRAL MONTANA

CITY           SKY/WX    TMP DP  RH WIND       PRES   REMARKS
CUT BANK       MOSUNNY   66  35  31 E9        30.22S
GREAT FALLS    CLOUDY    63  35  35 SE3       30.24S
HELENA         SUNNY     68  40  35 NE5       30.22F
AUGUSTA          N/A     64  37  36 NE8       30.24S
BOWMANS CRNR     N/A     63  35  36 E14G20    30.23R
CHOTEAU          N/A     66  39  37 SE8G14    30.25S
FAIRFIELD        N/A     64  34  32 E8        30.23S
POWER            N/A     62  36  37 E6        30.23S
RAYNESFORD     PTSUNNY   57  37  46 CALM      30.26S
ULM            PTSUNNY   61  45  54 E5        30.24S
$$

MTZ011-013-016-021-045-047-050-051-221800-
NORTH CENTRAL MONTANA

CITY           SKY/WX    TMP DP  RH WIND       PRES   REMARKS
HAVRE          SUNNY     65  39  38 VRB5      30.17F
LEWISTOWN      MOSUNNY   61  38  42 NW14G23   30.20S
N BAR RANCH    CLOUDY    57  39  51 N13G20    30.22S
CHINOOK          N/A     64  41  42 E5        30.17F
DENTON           N/A     62  39  41 NW17G24   30.17R
FORT BENTON      N/A    N/A N/A N/A MISG      30.21S
GEYSER         PTSUNNY   56  38  51 W20G25    30.23F
JUDITH GAP       N/A     54  38  56 NW30G39   30.22S
STANFORD         N/A     55  41  57 W21       30.24F
WINIFRED         N/A     62  41  45 N9        30.18R
$$

MTZ017>020-022>027-061-062-221800-
NORTHEAST MONTANA

CITY           SKY/WX    TMP DP  RH WIND       PRES   REMARKS
GLASGOW        PTSUNNY   62  40  44 N16G24    30.13R
JORDAN           N/A     63  36  36 N22G29    30.13S
SIDNEY         MOSUNNY   61  41  47 N8        30.06S
WOLF POINT     MOSUNNY   65  40  39 N14G28    30.09S
MALTA          MOSUNNY   63  37  39 NE10G18   30.16R
PLENTYWOOD       N/A     63  36  36 N10G23    30.06R
POPLAR           N/A     61  43  51 N13G20    30.08S
SCOBEY           N/A     59  41  51 N13       30.08R
$$

MTZ028>42-056>058-221800-
SOUTHCENTRAL AND SOUTHEAST MONTANA

CITY           SKY/WX    TMP DP  RH WIND       PRES   REMARKS
BAKER          CLOUDY    55  43  63 N20       30.06R
BILLINGS       LGT RAIN  61  38  42 N17       30.18R
LIVINGSTON     CLOUDY    59  40  49 W6        30.24S
MILES CITY     MOSUNNY   61  37  41 N17       30.10S
BIG TIMBER     CLOUDY    54  41  62 NE8       30.29R
EKALAKA          N/A     52  43  71 NW14      30.04F
FORSYTH          N/A     57  41  54 NW10      30.14S
LAUREL           N/A     60  35  39 W16       30.16F
ROUNDUP          N/A     61  37  40 N12       30.09R
$$

REGIONAL REPORTS...DAKOTAS

CITY           SKY/WX    TMP DP  RH WIND       PRES   REMARKS
WILLISTON      MOSUNNY   65  38  36 N13G22    30.05S
MINOT          PTSUNNY   57  37  47 N17       29.99R
DICKINSON      PTSUNNY   58  35  42 N15G24    29.99S
BEACH            N/A     54  48  82 N12G20    30.09S
TIOGA          PTSUNNY   59  32  36 N13G18    30.04F
WATFORD CITY     N/A     61  37  41 N12G21    30.03S
BISMARCK       PTSUNNY   62  38  40 NW16      29.97R
GRAND FORKS    CLOUDY    53  44  71 N17       29.85S
FARGO          MOSUNNY   59  42  53 NW20      29.84S
BUFFALO SD       N/A     56  43  61 NW22G31   29.96S
RAPID CITY     MOSUNNY   60  41  49 N22G30    30.00F
$$

REGIONAL REPORTS...WYOMING/IDAHO/WASHINGTON

CITY           SKY/WX    TMP DP  RH WIND       PRES   REMARKS
GILLETTE       LGT RAIN  43  40  89 NW13      30.14R
SHERIDAN       CLOUDY    48  42  80 N20       30.19R
BUFFALO WY     CLOUDY    50  40  68 NW22G29   30.16R
CODY           LGT RAIN  46  42  86 N21G29    30.25R
YELLOWSTONE LA   N/A     52  28  39 NW8G17    30.31F
IDAHO FALLS    MOSUNNY   62  40  44 VRB5      30.27F
SALMON         SUNNY     59  39  47 CALM      30.25F
BOISE          SUNNY     69  48  47 W6        30.21S
SPOKANE        MOSUNNY   68  48  48 E3        30.20F
$$

REGIONAL REPORTS...ALBERTA

CITY           SKY/WX    TMP DP  RH WIND       PRES   REMARKS
EDMONTON       SUNNY     66  43  42 S7        30.14F
CALGARY        MOSUNNY   68  34  28 N7        30.22R
LETHBRIDGE     MOSUNNY   64  37  36 VRB2      30.19F
MEDICINE HAT   PTSUNNY   63  43  48 SE7       30.19R
WATERTON GATE    N/A     66  34  30 NE9         N/A
CARDSTON         N/A     64  36  34 N7          N/A
MILK RIVER       N/A     68  36  30 W3          N/A
$$

REGIONAL REPORTS...SASKATCHEWAN

CITY           SKY/WX    TMP DP  RH WIND       PRES   REMARKS
SWIFT CURRENT  SUNNY     61  36  39 NW12      30.17R
REGINA         MOSUNNY   63  36  36 NE18G26   30.09S
SASKATOON      MOSUNNY   64  43  45 N7        30.18S
ROCKGLEN         N/A     57  39  51 N16G26      N/A
$$




USA.gov is the U.S. government's official web portal to all federal, state and local government web resources and services.